Location: Montbazon
(47.2835°N, 0.6999°E)
Time: 07:03:00
(UTC+00:00)

Cosmos 2219 Rocket - Pass Details

Date: 08 November 2025
Orbit: 825 x 846 km, 71.0° (Epoch: 17 December)

Event Time Altitude Azimuth Distance (km) Brightness Sun altitude
Exits shadow 04:36:37 44° 311° (NW) 1,150 2.5 -23.0°
Drops below altitude 10° 04:41:52 10° 18° (NNE) 2,477 4.8 -22.1°
Sets 04:44:27 0° 24° (NNE) 3,417 5.7 -21.7°
